Location: ??????????
(54.7560°N, 39.1389°E)
Time: 11:05:05
(UTC+00:00)

SL-16 R/B - Pass Details

Date: 19 May 2025
Orbit: 842 x 846 km, 71.0° (Epoch: 13 June)

Event Time Altitude Azimuth Distance (km) Brightness Sun altitude
Rises 22:33:36 0° 324° (NW) 3,412 5.9 -13.6°
Reaches altitude 10° 22:36:20 10° 334° (NNW) 2,474 5.3 -13.5°
Maximum altitude 22:41:25 33° 38° (NE) 1,400 4.1 -13.3°
Drops below altitude 10° 22:46:28 10° 101° (ESE) 2,464 4.7 -13.0°
Sets 22:49:10 0° 112° (ESE) 3,396 5.4 -12.9°
